Regional Weather Roundup
Issued by NWS

Home | Current Version | Previous Version | Text Only | Print | Product List | Glossary Off
Versions: 1 2 3 4 5 6 7 8 9 10 11 12 13 14 15 16 17 18 19 20 21 22 23 24 25 26 27 28 29 30 31 32 33 34 35 36 37 38 39 40 41 42 43 44 45 46 47 48 49 50

000
ASUS45 KTFX 182319
RWRMT
MONTANA HOURLY WEATHER ROUNDUP
NATIONAL WEATHER SERVICE GREAT FALLS MT
419 PM MST THU DEC 18 2014

NOTE: "FAIR" INDICATES FEW OR NO CLOUDS BELOW 12000 FEET WITH NO
SIGNIFICANT WEATHER AND/OR OBSTRUCTIONS TO VISIBILITY.

* THESE STATIONS ARE NOT UNDER NWS QUALITY CONTROL. THEY DO NOT
   REPORT WEATHER SUCH AS PRECIPITATION OR FOG.

MTZ001>007-043-190000-
WEST OF THE DIVIDE
CITY           SKY/WX    TMP DP  RH WIND       PRES   REMARKS
KALISPELL      CLOUDY    34  32  92 SW5       29.98S WCI  29
MISSOULA       CLOUDY    34  27  76 CALM      30.03R
BUTTE          CLOUDY    27  19  72 CALM      29.99S
MULLAN PASS    FOG       28  27  96 VRB5      29.92R VSB M1/4 WCI  22
* ESSEX        N/A       32  31  96 S1         N/A
* EUREKA APT   PTSUNNY   37  32  82 CALM      29.96R
* HAMILTON APT PTSUNNY   36  28  73 N6        29.99R WCI  31
* LIBBY APT    CLOUDY    34  32  92 CALM      29.99R
* LINCOLN      N/A       32  30  92 S3         N/A
* LOOKOUT PASS N/A       33  33 100 SE2        N/A
* POLSON       N/A       35  34  96 SE1        N/A
* RONAN APT    CLOUDY    34  34 100 N/A        N/A
* SEELEY LAKE  N/A       32  30  92 N/A        N/A
* THOMP F APT  CLOUDY    24  22  92 SE7        N/A   WCI  16
* YAAK HILL    N/A       36  33  89 E1         N/A
$$

MTZ008-052>055-190000-
SOUTHWEST MONTANA
CITY           SKY/WX    TMP DP  RH WIND       PRES   REMARKS
BOZEMAN        CLOUDY    30  23  75 S6        30.01S WCI  24
DILLON         CLOUDY    28  23  81 W3        30.00S
* W YELLOWSTON SUNNY     27  23  85 SW3        N/A
* THREE FORKS  CLOUDY    32   3  29 N/A        N/A
* TWIN BRIDGES CLOUDY    30  19  64 N/A        N/A
* BOULDER HILL N/A       30  15  54 SW8        N/A   WCI  22
* MONIDA PASS  N/A       22  22 100 SE15       N/A   WCI   9
* RAYNOLDS PAS N/A       25  10  53 S16        N/A   WCI  12
* WHITEHALL    N/A       33  21  61 SW4G9      N/A
* WISE RIVER   N/A       23  18  81 E2         N/A
$$

MTZ009>010-012-014-046-048-049-054-190000-
EAST SLOPES AND CENTRAL MONTANA
CITY           SKY/WX    TMP DP  RH WIND       PRES   REMARKS
CUT BANK       CLOUDY    37  28  70 W18       29.86R WCI  27
GREAT FALLS    PTCLDY    37  27  67 SW13      29.90R WCI  29
HELENA         PTSUNNY   30  23  75 W5        29.98R WCI  25
MALMSTROM AFB  PTCLDY    37  28  70 SW17G25   29.92R WCI  27
* CONRAD       PTCLDY    37  34  89 CALM       N/A
* DEARBORN     N/A       41  25  53 S11G16     N/A
* EAST GLACIER N/A       34  27  76 W20G30     N/A   WCI  23
* MONARCH      N/A       32  19  59 SW14G19    N/A   WCI  22
* PENDROY      N/A       37  24  59 W2         N/A
* ROGERS PASS  N/A       29  25  85 SE12G26    N/A   WCI  19
* SWEET GRASS  N/A       37  28  70 W7G14      N/A   WCI  32
* WHITE SULPH  N/A       35  18  50 S11G21     N/A   WCI  27
$$

MTZ011-013-016-021-035-040-045-047-050-051-190000-
NORTH CENTRAL MONTANA
CITY           SKY/WX    TMP DP  RH WIND       PRES   REMARKS
HAVRE          PTCLDY    36  28  73 SW10      29.88S WCI  29
LEWISTOWN      CLOUDY    37  27  67 SW12      29.90R WCI  29
* N BAR RANCH  CLOUDY    41  23  49 W13G20    29.91R
* CHINOOK      PTCLDY    23  21  92 CALM      29.91R VSB 2
* CHESTER      N/A       36  31  82 SW3        N/A
* DENTON       N/A       42  24  49 W14G19     N/A
* GEYSER       N/A       39  22  51 SW15       N/A   WCI  31
* JUDITH GAP   N/A       40  20  45 SW19       N/A   WCI  31
* LOMA         N/A       43  27  53 SW12       N/A
$$

MTZ017>020-022>027-061-062-190000-
NORTHEAST MONTANA
CITY           SKY/WX    TMP DP  RH WIND       PRES   REMARKS
GLASGOW        SUNNY     30  25  82 N3        29.90S
GLENDIVE       PTCLDY    32  25  75 S12       29.93S WCI  23
JORDAN         PTCLDY    39  28  65 W6        29.90R WCI  35
SIDNEY         SUNNY     27  25  92 CALM      29.95F
WOLF POINT     SUNNY     30  25  82 N5        29.92S WCI  25
* BEAVER HILL  N/A       33  27  79 SW6G11     N/A   WCI  27
* CIRCLE       N/A       41  31  68 N/A        N/A
* LINDSAY DVD  N/A       36  29  76 SW7        N/A   WCI  30
* NAVAJO       N/A       27  26  96 SW3        N/A
* PLENTYWOOD A SUNNY     27  27 100 SW6       29.91S WCI  20
* POPLAR APT   SUNNY     28  27  96 CALM      29.92F
* SACO         N/A       23  22  96 NW2        N/A
$$

MTZ028>042-056>058-190000-
SOUTHCENTRAL AND SOUTHEAST MONTANA
CITY           SKY/WX    TMP DP  RH WIND       PRES   REMARKS
BAKER          SUNNY     34  28  79 W6        29.94R WCI  29
BILLINGS       PTCLDY    36  21  54 W21       29.95R WCI  25
LIVINGSTON     CLOUDY    43  19  38 W16G28    29.96R
MILES CITY     SUNNY     34  25  70 SW8       29.94R WCI  27
* FORSYTH APT  SUNNY     39  25  57 CALM      29.93S
* LAUREL APT   PTCLDY    37  16  42 SW8        N/A   WCI  31
* ROUNDUP APT  PTCLDY    45  18  34 SW15G29    N/A
* ALZADA       N/A       37  25  62 SW5        N/A   WCI  33
* HYSHAM       N/A       35  19  52 W4         N/A
* LAME DEER    N/A       38  18  44 NW8        N/A   WCI  32
* REED POINT   N/A       43  21  42 W6G11      N/A
* ROSCOE HILL  N/A       39   5  24 S6G20      N/A   WCI  35
$$

REGIONAL REPORTS...DAKOTAS
CITY           SKY/WX    TMP DP  RH WIND       PRES   REMARKS
WILLISTON      CLOUDY    28  25  89 SW7       29.95R WCI  21
DICKINSON      SUNNY     30  25  82 CALM      29.92S
BEACH          SUNNY     32  32 100 SW7       29.93R WCI  25
CROSBY         CLOUDY    25  25 100 SW5       29.95R WCI  19
TIOGA          FOG       25  25 100 SW7       29.96S WCI  17
WATFORD CITY   CLOUDY    28  27  96 SW6       29.93S WCI  21
BISMARCK       CLOUDY    27  23  85 S6        30.02F WCI  20
GRAND FORKS    CLOUDY    19  14  81 S12       30.18R WCI   6
FARGO          CLOUDY    19  14  81 SE10      30.19S WCI   8
BUFFALO SD     PTCLDY    37  27  67 W12       29.89R WCI  29
RAPID CITY     SUNNY     39  27  62 CALM      29.98R
$$

REGIONAL REPORTS...WYOMING/IDAHO/WASHINGTON
CITY           SKY/WX    TMP DP  RH WIND       PRES   REMARKS
GILLETTE       SUNNY     34  21  59 SW10      29.97R WCI  26
SHERIDAN       SUNNY     36  21  54 SE6       29.95S WCI  31
CODY           SUNNY     37  21  52 W13       29.98S WCI  29
YELLOWSTONE LA PTCLDY    25  18  75 VRB5      30.05R WCI  19
SALMON         CLOUDY    28  19  69 CALM      30.07S
MULLAN PASS    FOG       28  27  96 VRB5      29.92S VSB M1/4 WCI  22
SAND POINT     FOG       34  34 100 CALM      29.99R VSB 2 1/2
SPOKANE        CLOUDY    43  37  79 SE3       29.96S
$$

REGIONAL REPORTS...ALBERTA
CITY           SKY/WX    TMP DP  RH WIND       PRES   REMARKS
CALGARY        PTSUNNY   36  23  59 S5        29.77R WCI  32
LETHBRIDGE     PTSUNNY   37  30  76 SW12      29.82R WCI  29
MEDICINE HAT   PTCLDY    21  19  92 NE3       29.85R
EDMONTON       SUNNY     19  16  88 E3        29.82S
WATERTON GATE  N/A       37  28  70 W12G17     N/A   WCI  29
CARDSTON       N/A       37  32  82 SW6        N/A   WCI  32
MILK RIVER     N/A       36  28  73 SW8        N/A   WCI  30
$$

REGIONAL REPORTS...SASKATCHEWAN
CITY           SKY/WX    TMP DP  RH WIND       PRES   REMARKS
SWIFT CURRENT  SUNNY     25  25 100 SW8       29.82S WCI  16
REGINA         CLOUDY    25  25 100 S7        29.90S WCI  17
VAL MARIE      N/A       25  23  92 CALM       N/A
ASSINIBOIA     N/A       27  25  92 SW8        N/A   WCI  19
CORONACH       N/A       27  27 100 SW8        N/A   WCI  19

$$



USA.gov is the U.S. government's official web portal to all federal, state and local government web resources and services.